Vorticity
nan nan nan nan nan nan nan nan nan nan nan nan nan nan nan nan nan nan nan nan nan nan nan nan nan nan nan nan nan nan nan nan nan nan nan nan nan nan nan nan nan nan nan
nan 8 8 8 8 8 8 8 8 8 8 8 9 9 9 9 9 9 9 10 8 8 9 7 10 16 14 13 10 8 4 8 13 11 8 11 11 13 12 9 8 10 nan
nan 8 8 7 8 8 8 8 8 8 8 9 9 8 9 9 9 9 10 9 9 10 10 10 8 3 18 16 9 9 6 5 8 11 9 9 11 11 10 10 11 11 nan
nan 9 8 8 8 8 7 8 9 8 8 8 8 9 9 9 11 10 9 9 10 9 8 10 10 10 8 10 15 10 9 4 4 8 9 9 8 10 10 10 7 10 nan
nan 8 8 7 8 8 9 9 8 8 9 9 9 9 10 11 6 5 8 10 9 10 10 10 10 4 11 16 10 14 9 8 5 5 7 9 8 13 10 6 10 9 nan
nan 8 8 9 8 8 8 8 8 9 9 8 9 9 10 7 -0 5 10 12 11 11 10 9 9 12 11 10 23 21 6 5 4 4 5 6 8 8 14 9 6 10 nan
nan 9 9 9 8 9 8 7 9 10 9 10 9 9 9 5 4 8 12 13 11 10 9 9 10 10 9 9 26 28 14 7 2 4 4 4 8 12 9 8 6 9 nan
nan 8 8 9 9 9 8 9 10 10 9 10 9 9 9 5 4 8 14 14 11 10 12 10 9 8 8 6 11 22 18 12 7 4 7 4 11 14 9 8 8 6 nan
nan 9 9 9 9 8 9 9 10 9 8 10 9 10 8 5 5 8 15 17 12 12 13 12 8 8 4 6 12 17 17 15 16 12 6 7 13 11 6 7 11 4 nan
nan 9 11 10 9 8 9 10 10 8 8 9 10 11 9 6 9 9 14 15 12 13 13 12 12 9 9 14 10 8 18 17 11 13 9 15 13 13 5 -1 6 3 nan
nan 12 10 9 9 9 10 10 8 8 10 10 11 11 13 10 6 7 12 10 8 9 11 13 11 7 9 11 11 9 9 16 19 11 13 10 9 10 6 12 12 7 nan
nan 9 8 9 10 12 10 8 10 11 11 9 11 12 12 10 9 7 8 6 8 13 12 8 -1 3 7 12 15 8 5 22 26 13 12 12 10 10 9 10 11 9 nan
nan 9 9 10 10 10 9 10 11 12 10 10 10 10 10 11 10 8 12 14 16 14 8 3 4 10 12 14 12 19 20 21 18 13 11 12 12 10 8 6 8 7 nan
nan 8 9 10 11 10 10 12 10 9 8 10 10 9 10 10 9 9 10 14 14 9 7 14 15 16 20 17 18 22 19 15 17 11 9 8 12 14 10 6 8 6 nan
nan 10 10 10 11 10 12 10 6 5 4 3 3 4 9 5 -1 -1 5 7 7 2 12 16 15 17 18 17 14 17 14 13 16 12 11 10 10 9 10 9 8 8 nan
nan 10 11 9 11 11 10 8 9 7 4 5 7 9 -0 -3 1 8 8 4 5 12 20 13 11 11 10 11 11 12 15 15 14 14 11 10 11 10 9 9 10 12 nan
nan 4 8 9 10 10 11 10 11 11 15 18 13 8 4 8 10 12 12 13 18 24 19 13 12 12 12 12 10 9 15 19 16 12 11 11 10 15 9 7 8 9 nan
nan 10 11 12 10 9 10 10 10 11 15 14 12 10 11 10 12 13 13 23 24 20 12 10 12 11 11 11 12 12 13 16 19 12 12 12 11 12 8 9 10 10 nan
nan 11 7 10 11 11 11 11 10 9 11 8 9 12 13 13 16 17 23 23 14 12 11 10 12 11 11 10 11 11 11 17 20 13 12 12 12 11 11 10 14 13 nan
nan 9 8 11 11 13 11 10 10 12 11 9 10 10 5 14 18 19 18 11 11 10 10 11 11 11 11 11 11 11 12 19 19 12 12 12 12 12 12 11 11 10 nan
nan 14 14 10 11 11 10 11 12 11 9 9 9 7 1 12 13 11 11 11 11 11 11 11 11 11 11 11 11 12 11 18 20 11 11 12 12 12 12 11 12 10 nan
nan 10 14 11 9 8 12 12 10 9 9 9 10 9 16 15 13 12 11 11 11 11 11 11 11 11 11 11 11 12 11 20 20 12 12 13 12 12 13 13 11 11 nan
nan 11 11 12 11 8 10 12 11 8 9 10 10 11 18 12 10 10 11 11 11 11 11 12 11 10 10 10 12 11 10 20 21 13 12 12 12 13 13 13 11 10 nan
nan 11 11 12 12 13 10 9 9 10 12 12 11 11 11 11 11 11 11 11 11 11 10 11 11 9 8 9 8 8 6 10 23 18 12 9 15 12 10 13 15 10 nan
nan 11 10 11 11 10 11 12 11 14 13 12 11 11 11 11 11 11 11 11 11 11 10 12 10 9 6 9 8 5 1 17 31 13 13 16 16 9 6 12 13 12 nan
nan nan nan nan nan nan nan nan nan nan nan nan nan nan nan nan nan nan nan nan nan nan nan nan nan nan nan nan nan nan nan nan nan nan nan nan nan nan nan nan nan nan nan
CAPE
0 0 0 0 0 0 0 0 0 0 0 0 0 0 0 0 0 1 6 4 6 6 7 6 4 7 0 0 0 0 0 0 0 0 0 0 0 0 0 0 0 0 0
0 0 0 0 0 0 0 0 0 0 0 0 0 0 0 0 0 0 1 4 5 4 4 6 3 0 8 0 0 0 0 0 0 0 0 0 0 0 0 0 0 0 0
0 0 0 0 0 0 0 0 0 0 0 0 0 0 0 0 0 0 1 2 4 5 6 6 1 3 2 0 0 0 0 0 0 0 0 0 0 0 0 0 0 0 0
0 0 0 0 0 0 0 0 0 0 0 0 0 0 0 0 0 0 0 3 5 7 8 10 8 5 2 11 0 0 0 0 0 0 0 0 0 0 0 0 0 0 0
0 0 0 0 0 0 0 0 0 0 0 0 0 0 0 0 0 0 2 2 7 6 6 8 10 8 1 1 8 0 0 0 0 0 0 0 0 0 0 0 0 0 0
0 0 0 0 0 0 0 0 0 0 0 0 0 0 0 0 0 6 11 5 4 11 8 6 9 7 5 7 3 0 0 0 0 0 0 0 0 0 0 0 0 0 0
0 0 0 0 0 0 0 0 0 0 0 0 0 0 0 0 2 7 13 3 9 9 8 7 9 9 7 5 0 0 0 0 0 0 0 0 0 0 0 0 0 0 0
0 0 0 0 0 0 0 0 0 0 0 0 0 0 0 0 2 8 14 4 3 2 9 7 7 5 6 9 5 11 0 0 0 0 0 0 0 0 0 0 0 0 0
0 0 0 0 0 0 0 0 0 0 0 0 0 0 0 0 3 7 9 3 9 3 2 5 2 5 7 10 13 3 15 0 0 0 0 0 0 0 0 0 0 0 0
0 0 0 0 0 0 0 0 0 0 0 0 0 0 2 0 1 7 12 12 13 14 15 11 13 12 23 15 13 12 18 0 0 0 0 0 0 0 0 0 0 0 0
0 0 0 0 0 0 0 0 0 0 0 0 1 0 0 0 0 4 11 9 15 18 17 21 21 15 19 21 12 11 6 16 0 0 0 0 0 0 0 0 0 0 0
0 0 0 0 0 0 0 0 0 0 0 0 0 0 1 0 1 2 8 17 14 11 15 20 23 29 22 16 12 11 9 2 0 0 0 0 0 0 0 0 0 0 0
0 0 0 0 0 0 0 0 0 0 0 0 2 0 0 0 0 6 11 10 13 13 15 19 23 15 15 15 8 8 4 1 0 0 0 0 0 0 0 0 0 0 0
0 0 0 0 0 0 0 0 0 0 0 0 1 0 0 0 2 4 0 0 8 17 12 4 14 11 13 11 7 8 9 0 9 0 0 0 0 0 0 0 0 0 0
0 0 0 0 0 0 0 0 0 0 0 0 0 0 3 0 1 6 13 14 22 28 32 22 14 5 2 2 2 5 10 2 7 0 0 0 0 0 0 0 0 0 0
0 0 0 0 0 0 0 0 0 5 9 11 13 10 0 11 18 20 22 26 38 40 17 16 13 5 4 5 4 0 9 8 13 0 0 0 0 0 0 0 0 0 0
0 0 0 0 0 0 0 0 0 0 1 4 8 11 13 11 13 19 24 27 50 35 19 14 10 4 2 4 6 3 2 16 9 0 0 0 0 0 0 0 0 0 0
0 2 0 0 0 0 0 0 0 0 0 0 0 0 2 6 12 15 22 21 6 4 17 5 2 1 6 5 11 4 0 10 2 0 0 0 0 0 0 0 0 0 0
0 0 0 0 0 0 0 0 0 0 0 0 0 0 0 2 9 16 18 1 2 7 4 2 6 5 8 8 7 10 7 8 0 0 0 0 0 0 0 0 0 0 0
0 1 4 0 0 0 0 0 0 0 0 0 0 0 0 1 0 0 0 6 6 2 2 6 5 6 5 9 7 10 5 11 0 0 0 0 0 0 0 0 0 0 0
0 0 1 1 0 0 0 0 0 0 0 0 0 0 10 1 0 1 0 2 0 0 2 4 3 5 4 7 9 9 0 15 0 0 0 0 0 0 0 0 0 0 0
0 0 0 0 0 0 0 0 0 0 0 0 0 0 11 0 0 0 0 0 0 0 2 3 1 3 4 7 9 2 1 19 0 0 0 0 0 0 0 0 0 0 0
0 0 0 0 0 3 1 0 0 0 0 0 0 0 0 0 0 0 0 0 0 0 0 3 2 3 3 7 10 5 6 11 0 0 0 0 0 0 0 0 0 0 0
0 0 0 0 0 0 0 0 0 0 0 0 0 0 0 0 0 0 0 0 0 0 0 1 2 3 1 5 6 1 8 14 1 0 0 0 0 0 0 0 0 0 0
0 0 0 0 0 0 0 0 0 0 0 0 0 0 0 0 0 0 0 0 0 0 0 0 1 2 3 1 1 1 4 13 0 0 0 0 0 0 0 0 0 0 0
0 0 0 0 0 0 0 0 0 0 0 0 0 0 0 0 0 0 0 0 0 0 0 0 2 0 0 0 0 2 10 15 0 0 0 0 0 0 0 0 0 0 0